Regional Weather Roundup
Issued by NWS Charleston, WV

Home | Current Version | Previous Version | Text Only | Print | Product List | Glossary Off
Versions: 1 2 3 4 5 6 7 8 9 10 11 12 13 14 15 16 17 18 19 20 21 22 23 24 25 26 27 28 29 30 31 32 33 34 35 36 37 38 39 40 41 42 43 44 45 46 47 48

000
ASUS41 KRLX 250110
RWRRLX
West Virginia Regional Weather Roundup
National Weather Service Charleston WV
800 PM EST FRI NOV 24 2017

Note: "fair" indicates few or no clouds below 12,000 feet with no
significant weather and/or obstructions to visibility.

WVZ003-250200-
Northern Panhandle of West Virginia

CITY           SKY/WX    TMP DP  RH WIND       PRES   REMARKS
WHEELING       CLEAR     45  19  35 S9        29.81F
$$

WVZ009-250200-
Northwest West Virginia

CITY           SKY/WX    TMP DP  RH WIND       PRES   REMARKS
PARKERSBURG    CLOUDY    40  21  46 S6        29.86S
$$

WVZ006-250200-
Western West Virginia

CITY           SKY/WX    TMP DP  RH WIND       PRES   REMARKS
HUNTINGTON     PTCLDY    49  23  36 CALM      29.85S
$$

WVZ015-250200-
West Central West Virginia

CITY           SKY/WX    TMP DP  RH WIND       PRES   REMARKS
CHARLESTON     CLEAR     45  25  45 CALM      29.85F
$$

WVZ022-031-250200-
North Central West Virginia

CITY           SKY/WX    TMP DP  RH WIND       PRES   REMARKS
CLARKSBURG     CLEAR     43  19  38 CALM      29.86S
MORGANTOWN     CLEAR     46  17  31 CALM      29.85S
$$

WVZ025-035-042-045-250200-
Southern West Virginia

CITY           SKY/WX    TMP DP  RH WIND       PRES   REMARKS
BECKLEY        CLEAR     46  22  38 S8        29.89F
LOGAN            N/A     52  23  32 CALM      29.86S
BLUEFIELD      CLEAR     50  18  28 S5        29.92S
LEWISBURG      CLEAR     36  23  58 CALM      29.92S
$$

WVZ047-250200-
Northern Mountains of West Virginia

CITY           SKY/WX    TMP DP  RH WIND       PRES   REMARKS
ELKINS         CLEAR     30  24  78 CALM      29.88S
$$

WVZ052-250200-
Eastern Panhandle of West Virginia

CITY           SKY/WX    TMP DP  RH WIND       PRES   REMARKS
MARTINSBURG    CLEAR     38  25  59 CALM      29.90S
PETERSBURG     CLEAR     32  27  80 CALM      29.89S
$$




USA.gov is the U.S. government's official web portal to all federal, state and local government web resources and services.